| time (UTC) | temp C | wind direction | speed KPH | gust KPH | rain 1hr cm | rain 24hr cm | rain mn cm | humidity % | barometer mb |
| 20260505065006 | 17 | 321 | 1.6 | 9.7 | 0.00 | 0.00 | 0.00 | 51 | 1006.6 |
| 20260505064505 | 17 | 350 | 1.6 | 8.0 | 0.00 | 0.00 | 0.00 | 51 | 1006.6 |
| 20260505064005 | 17 | 355 | 3.2 | 14.5 | 0.00 | 0.00 | 0.00 | 51 | 1006.6 |
| 20260505063505 | 17 | 348 | 3.2 | 14.5 | 0.00 | 0.00 | 0.00 | 50 | 1006.6 |
| 20260505063004 | 17 | 270 | 3.2 | 12.9 | 0.00 | 0.00 | 0.00 | 50 | 1006.6 |
| 20260505062504 | 17 | 167 | 1.6 | 11.3 | 0.00 | 0.00 | 0.00 | 50 | 1006.6 |
| 20260505062003 | 17 | 130 | 4.8 | 20.9 | 0.00 | 0.00 | 0.00 | 50 | 1006.6 |
| 20260505061503 | 17 | 123 | 6.4 | 20.9 | 0.00 | 0.00 | 0.00 | 49 | 1006.5 |
| 20260505061003 | 17 | 323 | 3.2 | 16.1 | 0.00 | 0.00 | 0.00 | 50 | 1006.5 |
| 20260505060502 | 17 | 172 | 8.0 | 16.1 | 0.00 | 0.00 | 0.00 | 50 | 1006.5 |
| 20260505060105 | 17 | 218 | 3.2 | 12.9 | 0.00 | 0.00 | 0.00 | 50 | 1006.6 |
| 20260505055502 | 17 | 300 | 4.8 | 11.3 | 0.00 | 0.00 | 0.00 | 49 | 1006.6 |
| 20260505055002 | 17 | 338 | 3.2 | 11.3 | 0.00 | 0.00 | 0.00 | 49 | 1006.7 |
| 20260505054501 | 17 | 231 | 1.6 | 19.3 | 0.00 | 0.00 | 0.00 | 49 | 1006.7 |
| 20260505054003 | 17 | 303 | 6.4 | 19.3 | 0.00 | 0.00 | 0.00 | 49 | 1006.7 |
| 20260505053601 | 17 | 355 | 1.6 | 12.9 | 0.00 | 0.00 | 0.00 | 49 | 1006.6 |
| 20260505053107 | 17 | 111 | 1.6 | 6.4 | 0.00 | 0.00 | 0.00 | 49 | 1006.8 |
| 20260505052600 | 17 | 254 | 3.2 | 11.3 | 0.00 | 0.00 | 0.00 | 49 | 1006.8 |
| 20260505052100 | 17 | 156 | 3.2 | 12.9 | 0.00 | 0.00 | 0.00 | 49 | 1006.8 |
| 20260505051700 | 17 | 195 | 1.6 | 11.3 | 0.00 | 0.00 | 0.00 | 49 | 1006.7 |
| 20260505051058 | 17 | 184 | 1.6 | 12.9 | 0.00 | 0.00 | 0.00 | 49 | 1006.8 |
| 20260505050559 | 17 | 237 | 6.4 | 14.5 | 0.00 | 0.00 | 0.00 | 49 | 1006.8 |
| 20260505041602 | 17 | 298 | 3.2 | 8.0 | 0.00 | 0.00 | 0.00 | 49 | 1006.5 |
| 20260505041054 | 17 | 311 | 1.6 | 14.5 | 0.00 | 0.00 | 0.00 | 49 | 1006.6 |
| 20260505040554 | 17 | 23 | 1.6 | 16.1 | 0.00 | 0.00 | 0.00 | 49 | 1006.6 |
| 20260505040056 | 17 | 24 | 4.8 | 16.1 | 0.00 | 0.00 | 0.00 | 49 | 1006.6 |
| 20260505035551 | 17 | 15 | 1.6 | 14.5 | 0.00 | 0.00 | 0.00 | 49 | 1006.6 |
| 20260505035052 | 17 | 227 | 4.8 | 14.5 | 0.00 | 0.00 | 0.00 | 48 | 1006.6 |
| 20260505034552 | 17 | 138 | 1.6 | 11.3 | 0.00 | 0.00 | 0.00 | 48 | 1006.5 |
| 20260505034052 | 18 | 342 | 1.6 | 6.4 | 0.00 | 0.00 | 0.00 | 48 | 1006.7 |
| 20260505033552 | 18 | 160 | 1.6 | 8.0 | 0.00 | 0.00 | 0.00 | 48 | 1006.6 |
| 20260505033051 | 18 | 255 | 1.6 | 8.0 | 0.00 | 0.00 | 0.00 | 47 | 1006.7 |
| 20260505032551 | 18 | 261 | 1.6 | 8.0 | 0.00 | 0.00 | 0.00 | 47 | 1006.7 |
| 20260505032052 | 18 | 225 | 1.6 | 9.7 | 0.00 | 0.00 | 0.00 | 46 | 1006.7 |
| 20260505031552 | 18 | 101 | 1.6 | 8.0 | 0.00 | 0.00 | 0.00 | 46 | 1006.7 |
| 20260505031050 | 18 | 144 | 3.2 | 8.0 | 0.00 | 0.00 | 0.00 | 46 | 1006.7 |
| 20260505030551 | 18 | 290 | 1.6 | 9.7 | 0.00 | 0.00 | 0.00 | 46 | 1006.6 |
| 20260505030109 | 18 | 182 | 3.2 | 8.0 | 0.00 | 0.00 | 0.00 | 45 | 1006.7 |
| 20260505025550 | 18 | 333 | 1.6 | 8.0 | 0.00 | 0.00 | 0.00 | 45 | 1006.7 |
| 20260505025050 | 18 | 312 | 3.2 | 9.7 | 0.00 | 0.00 | 0.00 | 45 | 1006.8 |
| 20260505024553 | 18 | 138 | 0.0 | 16.1 | 0.00 | 0.00 | 0.00 | 44 | 1006.8 |
| 20260505024051 | 18 | 243 | 1.6 | 16.1 | 0.00 | 0.00 | 0.00 | 44 | 1006.8 |
| 20260505023549 | 18 | 201 | 1.6 | 16.1 | 0.00 | 0.00 | 0.00 | 44 | 1006.9 |
| 20260505023049 | 18 | 102 | 4.8 | 16.1 | 0.00 | 0.00 | 0.00 | 44 | 1006.9 |
| 20260505022549 | 18 | 231 | 1.6 | 14.5 | 0.00 | 0.00 | 0.00 | 44 | 1006.9 |
| 20260505022150 | 18 | 239 | 6.4 | 17.7 | 0.00 | 0.00 | 0.00 | 44 | 1006.8 |
| 20260505021550 | 18 | 82 | 4.8 | 17.7 | 0.00 | 0.00 | 0.00 | 44 | 1007.0 |
| 20260505021048 | 18 | 249 | 1.6 | 11.3 | 0.00 | 0.00 | 0.00 | 44 | 1007.0 |
| 20260505020548 | 18 | 327 | 3.2 | 11.3 | 0.00 | 0.00 | 0.00 | 43 | 1006.9 |
| 20260505020048 | 18 | 214 | 3.2 | 12.9 | 0.00 | 0.00 | 0.00 | 43 | 1006.9 |
| 20260505015548 | 18 | 196 | 3.2 | 8.0 | 0.00 | 0.00 | 0.00 | 43 | 1006.9 |
| 20260505015048 | 18 | 85 | 0.0 | 11.3 | 0.00 | 0.00 | 0.00 | 44 | 1006.9 |
| 20260505014603 | 18 | 110 | 4.8 | 11.3 | 0.00 | 0.00 | 0.00 | 43 | 1006.9 |
| 20260505014046 | 18 | 273 | 1.6 | 12.9 | 0.00 | 0.00 | 0.00 | 43 | 1006.8 |
| 20260505013548 | 19 | 309 | 1.6 | 6.4 | 0.00 | 0.00 | 0.00 | 43 | 1006.8 |
| 20260505013051 | 19 | 267 | 0.0 | 6.4 | 0.00 | 0.00 | 0.00 | 44 | 1006.7 |
| 20260505012546 | 19 | 259 | 1.6 | 9.7 | 0.00 | 0.00 | 0.00 | 43 | 1006.7 |
| 20260505012046 | 19 | 148 | 3.2 | 16.1 | 0.00 | 0.00 | 0.00 | 42 | 1006.6 |
| 20260505011546 | 19 | 250 | 6.4 | 16.1 | 0.00 | 0.00 | 0.00 | 41 | 1006.6 |
| 20260505011049 | 20 | 161 | 1.6 | 14.5 | 0.00 | 0.00 | 0.00 | 42 | 1006.5 |
| 20260505010546 | 20 | 182 | 0.0 | 14.5 | 0.00 | 0.00 | 0.00 | 41 | 1006.5 |
| 20260505010054 | 20 | 111 | 3.2 | 14.5 | 0.00 | 0.00 | 0.00 | 41 | 1006.5 |
| 20260505005549 | 20 | 291 | 3.2 | 6.4 | 0.00 | 0.00 | 0.00 | 40 | 1006.4 |
| 20260505005045 | 20 | 167 | 0.0 | 8.0 | 0.00 | 0.00 | 0.00 | 40 | 1006.4 |
| 20260505004550 | 20 | 5 | 1.6 | 14.5 | 0.00 | 0.00 | 0.00 | 40 | 1006.4 |
| 20260505004043 | 20 | 302 | 1.6 | 8.0 | 0.00 | 0.00 | 0.00 | 39 | 1006.4 |
| 20260505003544 | 20 | 227 | 0.0 | 12.9 | 0.00 | 0.00 | 0.00 | 39 | 1006.4 |
| 20260505003055 | 20 | 314 | 0.0 | 12.9 | 0.00 | 0.00 | 0.00 | 39 | 1006.4 |
| 20260505002544 | 20 | 201 | 3.2 | 8.0 | 0.00 | 0.00 | 0.00 | 39 | 1006.3 |
| 20260505002044 | 21 | 321 | 1.6 | 12.9 | 0.00 | 0.00 | 0.00 | 39 | 1006.2 |
| 20260505001545 | 21 | 240 | 3.2 | 14.5 | 0.00 | 0.00 | 0.00 | 38 | 1006.1 |
| 20260505001043 | 21 | 229 | 4.8 | 14.5 | 0.00 | 0.00 | 0.00 | 37 | 1006.1 |
| 20260505000543 | 21 | 252 | 3.2 | 8.0 | 0.00 | 0.00 | 0.00 | 38 | 1006.1 |
| 20260505000041 | 21 | 93 | 3.2 | 14.5 | 0.00 | 0.00 | 0.00 | 37 | 1006.1 |
| 20260504235545 | 21 | 215 | 4.8 | 14.5 | 0.00 | 0.00 | 0.00 | 37 | 1006.0 |
| 20260504235142 | 21 | 187 | 1.6 | 16.1 | 0.00 | 0.00 | 0.00 | 36 | 1006.1 |
| 20260504234543 | 21 | 200 | 1.6 | 11.3 | 0.00 | 0.00 | 0.00 | 36 | 1006.0 |
| 20260504234040 | 22 | 248 | 1.6 | 14.5 | 0.00 | 0.00 | 0.00 | 36 | 1006.0 |
| 20260504233541 | 22 | 173 | 6.4 | 14.5 | 0.00 | 0.00 | 0.00 | 35 | 1005.9 |
| 20260504233042 | 22 | 255 | 4.8 | 16.1 | 0.00 | 0.00 | 0.00 | 34 | 1005.8 |
| 20260504232640 | 22 | 263 | 1.6 | 14.5 | 0.00 | 0.00 | 0.00 | 34 | 1005.8 |
| 20260504232039 | 22 | 150 | 4.8 | 14.5 | 0.00 | 0.00 | 0.00 | 33 | 1005.8 |
| 20260504231539 | 22 | 261 | 3.2 | 19.3 | 0.00 | 0.00 | 0.00 | 33 | 1005.8 |
| 20260504231039 | 23 | 237 | 4.8 | 19.3 | 0.00 | 0.00 | 0.00 | 33 | 1005.8 |
| 20260504230538 | 23 | 281 | 3.2 | 11.3 | 0.00 | 0.00 | 0.00 | 33 | 1005.9 |
| 20260504230040 | 23 | 13 | 3.2 | 17.7 | 0.00 | 0.00 | 0.00 | 33 | 1005.7 |
| 20260504225538 | 23 | 180 | 6.4 | 16.1 | 0.00 | 0.00 | 0.00 | 32 | 1005.8 |
| 20260504225037 | 23 | 195 | 3.2 | 11.3 | 0.00 | 0.00 | 0.00 | 32 | 1005.7 |
| 20260504224537 | 23 | 202 | 0.0 | 24.1 | 0.00 | 0.00 | 0.00 | 32 | 1005.7 |
| 20260504224138 | 23 | 228 | 4.8 | 24.1 | 0.00 | 0.00 | 0.00 | 31 | 1005.8 |
| 20260504223537 | 23 | 146 | 1.6 | 11.3 | 0.00 | 0.00 | 0.00 | 31 | 1005.8 |
| 20260504223054 | 23 | 228 | 4.8 | 19.3 | 0.00 | 0.00 | 0.00 | 32 | 1005.7 |
| 20260504222535 | 23 | 231 | 4.8 | 19.3 | 0.00 | 0.00 | 0.00 | 31 | 1005.8 |
| 20260504222035 | 23 | 162 | 4.8 | 17.7 | 0.00 | 0.00 | 0.00 | 31 | 1005.8 |
| 20260504221535 | 24 | 313 | 1.6 | 12.9 | 0.00 | 0.00 | 0.00 | 32 | 1005.8 |
| 20260504221035 | 24 | 188 | 4.8 | 16.1 | 0.00 | 0.00 | 0.00 | 32 | 1005.8 |
| 20260504220534 | 24 | 112 | 4.8 | 20.9 | 0.00 | 0.00 | 0.00 | 32 | 1005.9 |
| 20260504220034 | 24 | 238 | 9.7 | 20.9 | 0.00 | 0.00 | 0.00 | 31 | 1005.8 |
| 20260504215534 | 24 | 181 | 6.4 | 16.1 | 0.00 | 0.00 | 0.00 | 30 | 1005.7 |
| 20260504215036 | 24 | 220 | 4.8 | 19.3 | 0.00 | 0.00 | 0.00 | 30 | 1005.7 |
| 20260504214534 | 24 | 196 | 12.9 | 20.9 | 0.00 | 0.00 | 0.00 | 28 | 1005.7 |
| 20260504214036 | 24 | 215 | 1.6 | 17.7 | 0.00 | 0.00 | 0.00 | 28 | 1005.7 |
| 20260504213532 | 24 | 244 | 6.4 | 22.5 | 0.00 | 0.00 | 0.00 | 28 | 1005.7 |
| 20260504213031 | 23 | 282 | 6.4 | 24.1 | 0.00 | 0.00 | 0.00 | 29 | 1005.7 |
| 20260504212532 | 23 | 288 | 12.9 | 35.4 | 0.00 | 0.00 | 0.00 | 28 | 1005.8 |
| 20260504212031 | 23 | 226 | 17.7 | 35.4 | 0.00 | 0.00 | 0.00 | 28 | 1005.8 |
| 20260504211539 | 23 | 223 | 12.9 | 27.4 | 0.00 | 0.00 | 0.00 | 29 | 1005.8 |
| 20260504211030 | 23 | 134 | 8.0 | 22.5 | 0.00 | 0.00 | 0.00 | 29 | 1005.9 |
| 20260504210531 | 23 | 288 | 8.0 | 29.0 | 0.00 | 0.00 | 0.00 | 29 | 1006.0 |
| 20260504210028 | 23 | 202 | 12.9 | 29.0 | 0.00 | 0.00 | 0.00 | 28 | 1006.1 |
| 20260504205530 | 24 | 229 | 12.9 | 29.0 | 0.00 | 0.00 | 0.00 | 27 | 1006.1 |
| 20260504205026 | 24 | 246 | 9.7 | 29.0 | 0.00 | 0.00 | 0.00 | 29 | 1006.2 |
| 20260504204525 | 24 | 264 | 11.3 | 25.7 | 0.00 | 0.00 | 0.00 | 28 | 1006.2 |
| 20260504204025 | 24 | 250 | 6.4 | 29.0 | 0.00 | 0.00 | 0.00 | 31 | 1006.4 |
| 20260504203524 | 24 | 271 | 9.7 | 29.0 | 0.00 | 0.00 | 0.00 | 30 | 1006.5 |
| 20260504203024 | 24 | 260 | 8.0 | 24.1 | 0.00 | 0.00 | 0.00 | 32 | 1006.5 |
| 20260504202522 | 24 | 259 | 6.4 | 20.9 | 0.00 | 0.00 | 0.00 | 30 | 1006.5 |
| 20260504202021 | 24 | 178 | 11.3 | 20.9 | 0.00 | 0.00 | 0.00 | 30 | 1006.6 |
| 20260504201520 | 24 | 281 | 9.7 | 25.7 | 0.00 | 0.00 | 0.00 | 29 | 1006.7 |
| 20260504201019 | 23 | 239 | 6.4 | 29.0 | 0.00 | 0.00 | 0.00 | 29 | 1006.7 |
| 20260504200519 | 24 | 269 | 9.7 | 27.4 | 0.00 | 0.00 | 0.00 | 30 | 1006.8 |
| 20260504200018 | 24 | 202 | 8.0 | 27.4 | 0.00 | 0.00 | 0.00 | 30 | 1006.9 |
| 20260504195520 | 23 | 204 | 8.0 | 27.4 | 0.00 | 0.00 | 0.00 | 30 | 1007.0 |
| 20260504195015 | 23 | 242 | 8.0 | 22.5 | 0.00 | 0.00 | 0.00 | 33 | 1007.1 |
| 20260504194515 | 23 | 263 | 12.9 | 27.4 | 0.00 | 0.00 | 0.00 | 32 | 1007.0 |
| 20260504194014 | 23 | 207 | 3.2 | 30.6 | 0.00 | 0.00 | 0.00 | 32 | 1007.2 |
| 20260504193514 | 23 | 194 | 16.1 | 30.6 | 0.00 | 0.00 | 0.00 | 31 | 1007.3 |
| 20260504193014 | 23 | 294 | 4.8 | 20.9 | 0.00 | 0.00 | 0.00 | 31 | 1007.3 |
| 20260504192513 | 23 | 252 | 12.9 | 24.1 | 0.00 | 0.00 | 0.00 | 31 | 1007.3 |
| 20260504192013 | 23 | 223 | 12.9 | 30.6 | 0.00 | 0.00 | 0.00 | 32 | 1007.4 |
| 20260504191511 | 23 | 281 | 12.9 | 30.6 | 0.00 | 0.00 | 0.00 | 32 | 1007.5 |
| 20260504191013 | 23 | 277 | 14.5 | 25.7 | 0.00 | 0.00 | 0.00 | 33 | 1007.5 |
| 20260504190511 | 23 | 211 | 16.1 | 32.2 | 0.00 | 0.00 | 0.00 | 31 | 1007.6 |
| 20260504190010 | 23 | 247 | 16.1 | 37.0 | 0.00 | 0.00 | 0.00 | 32 | 1007.6 |
| 20260504185510 | 23 | 178 | 11.3 | 25.7 | 0.00 | 0.00 | 0.00 | 31 | 1007.7 |
| 20260504185008 | 23 | 224 | 14.5 | 27.4 | 0.00 | 0.00 | 0.00 | 32 | 1007.7 |
| 20260504184507 | 23 | 226 | 9.7 | 25.7 | 0.00 | 0.00 | 0.00 | 31 | 1007.6 |
| 20260504184006 | 23 | 153 | 8.0 | 25.7 | 0.00 | 0.00 | 0.00 | 34 | 1007.7 |
| 20260504183505 | 23 | 244 | 9.7 | 25.7 | 0.00 | 0.00 | 0.00 | 34 | 1007.8 |
| 20260504183008 | 23 | 258 | 9.7 | 27.4 | 0.00 | 0.00 | 0.00 | 34 | 1007.8 |
| 20260504182503 | 22 | 240 | 14.5 | 27.4 | 0.00 | 0.00 | 0.00 | 33 | 1007.8 |
| 20260504182003 | 22 | 213 | 12.9 | 27.4 | 0.00 | 0.00 | 0.00 | 35 | 1008.0 |
| 20260504181502 | 22 | 273 | 12.9 | 27.4 | 0.00 | 0.00 | 0.00 | 33 | 1007.9 |
| 20260504181002 | 22 | 271 | 16.1 | 25.7 | 0.00 | 0.00 | 0.00 | 33 | 1008.0 |
| 20260504180504 | 22 | 259 | 4.8 | 24.1 | 0.00 | 0.00 | 0.00 | 35 | 1008.0 |
| 20260504180100 | 22 | 223 | 12.9 | 24.1 | 0.00 | 0.00 | 0.00 | 33 | 1008.1 |
| 20260504175559 | 22 | 224 | 8.0 | 22.5 | 0.00 | 0.00 | 0.00 | 34 | 1008.2 |
| 20260504175058 | 22 | 230 | 11.3 | 22.5 | 0.00 | 0.00 | 0.00 | 34 | 1008.2 |
| 20260504174558 | 22 | 309 | 4.8 | 24.1 | 0.00 | 0.00 | 0.00 | 34 | 1008.3 |
| 20260504174056 | 22 | 138 | 6.4 | 25.7 | 0.00 | 0.00 | 0.00 | 38 | 1008.2 |
| 20260504173558 | 22 | 240 | 8.0 | 29.0 | 0.00 | 0.00 | 0.00 | 37 | 1008.3 |
| 20260504173057 | 22 | 264 | 3.2 | 32.2 | 0.00 | 0.00 | 0.00 | 36 | 1008.3 |
| 20260504172554 | 22 | 307 | 9.7 | 32.2 | 0.00 | 0.00 | 0.00 | 35 | 1008.3 |
| 20260504172054 | 21 | 234 | 9.7 | 25.7 | 0.00 | 0.00 | 0.00 | 37 | 1008.4 |
| 20260504171551 | 21 | 297 | 11.3 | 27.4 | 0.00 | 0.00 | 0.00 | 37 | 1008.5 |
| 20260504171051 | 21 | 284 | 9.7 | 27.4 | 0.00 | 0.00 | 0.00 | 37 | 1008.6 |
| 20260504170553 | 21 | 257 | 11.3 | 24.1 | 0.00 | 0.00 | 0.00 | 37 | 1008.7 |
| 20260504151029 | 18 | 197 | 9.7 | 29.0 | 0.00 | 0.00 | 0.00 | 39 | 1010.3 |
| 20260504150529 | 18 | 277 | 12.9 | 29.0 | 0.00 | 0.00 | 0.00 | 39 | 1010.2 |
| 20260504141013 | 15 | 259 | 8.0 | 25.7 | 0.00 | 0.00 | 0.00 | 43 | 1010.9 |
| 20260504140517 | 15 | 203 | 12.9 | 25.7 | 0.00 | 0.00 | 0.00 | 42 | 1011.0 |
| 20260504130558 | 12 | 200 | 8.0 | 16.1 | 0.00 | 0.00 | 0.00 | 52 | 1011.5 |
| 20260504110537 | 3 | 243 | 0.0 | 0.0 | 0.00 | 0.00 | 0.00 | 82 | 1011.9 |
| 20260504100535 | 3 | 246 | 0.0 | 0.0 | 0.00 | 0.00 | 0.00 | 79 | 1011.6 |
| 20260504081526 | 4 | 244 | 0.0 | 0.0 | 0.00 | 0.00 | 0.00 | 76 | 1012.0 |
| 20260504081028 | 4 | 244 | 0.0 | 0.0 | 0.00 | 0.00 | 0.00 | 76 | 1011.9 |
| 20260504080525 | 4 | 244 | 0.0 | 0.0 | 0.00 | 0.00 | 0.00 | 76 | 1011.9 |